When you browse on this site, cookies collect data to enhance your experience and personalize the content and advertising you see.
Visit our Privacy Policy to learn more. By continuing to use the site, you agree to this use of cookies and data.
  • In Portugal
  • List of Countries
  • For 7 days
  • Water Temperature
  • Weather Map
  • Weather Widgets
  • user-avatar
    Login

    Hourly Weather Griboedovo

    Today, 21 August, Wednesday

    Time Temperature Precipitation Wind Pressure Humidity
    00:00 +17°C° 0 mm 2 mps 752 mmHg 92%
    01:00 +17°C° 0 mm 2 mps 752 mmHg 92%
    02:00 +17°C° 0 mm 2 mps 752 mmHg 93%
    03:00 +16°C° 0 mm 2 mps 752 mmHg 93%
    04:00 +17°C° 0 mm 2 mps 752 mmHg 93%
    05:00 +17°C° 0 mm 2 mps 753 mmHg 93%
    06:00 +17°C° 0 mm 2 mps 753 mmHg 93%
    07:00 +19°C° 0 mm 2 mps 753 mmHg 87%
    08:00 +20°C° 0 mm 2 mps 753 mmHg 81%
    09:00 +23°C° 0 mm 2 mps 753 mmHg 76%
    10:00 +24°C° 0 mm 2 mps 753 mmHg 72%
    11:00 +25°C° 0 mm 2 mps 753 mmHg 68%
    12:00 +26°C° 0 mm 3 mps 753 mmHg 64%
    13:00 +26°C° 0 mm 3 mps 753 mmHg 63%
    14:00 +26°C° 0 mm 3 mps 753 mmHg 62%
    15:00 +27°C° 0 mm 3 mps 753 mmHg 61%
    16:00 +26°C° 0 mm 2 mps 753 mmHg 66%
    17:00 +25°C° 0 mm 2 mps 752 mmHg 70%
    18:00 +24°C° 0 mm 2 mps 752 mmHg 75%
    19:00 +23°C° 0 mm 2 mps 752 mmHg 79%
    20:00 +22°C° 0 mm 1 mps 752 mmHg 83%
    21:00 +20°C° 0 mm 1 mps 752 mmHg 87%
    22:00 +20°C° 0 mm 1 mps 752 mmHg 88%
    23:00 +20°C° 0 mm 1 mps 752 mmHg 89%

    Tomorrow, 22 August, Thursday

    Time Temperature Precipitation Wind Pressure Humidity
    00:00 +19°C° 0 mm 1 mps 752 mmHg 90%
    01:00 +17°C° 0 mm 0 mps 752 mmHg 90%
    02:00 +17°C° 0 mm 0 mps 753 mmHg 90%
    03:00 +16°C° 0 mm 0 mps 753 mmHg 90%
    04:00 +17°C° 0 mm 0 mps 752 mmHg 90%
    05:00 +17°C° 0 mm 0 mps 752 mmHg 90%
    06:00 +17°C° 0 mm 0 mps 752 mmHg 90%
    07:00 +19°C° 0 mm 0 mps 752 mmHg 84%
    08:00 +22°C° 0 mm 1 mps 752 mmHg 78%
    09:00 +24°C° 0 mm 1 mps 752 mmHg 72%
    10:00 +25°C° 0 mm 1 mps 752 mmHg 68%
    11:00 +26°C° 0 mm 1 mps 752 mmHg 64%
    12:00 +27°C° 0 mm 1 mps 752 mmHg 60%
    13:00 +27°C° 0 mm 1 mps 751 mmHg 58%
    14:00 +27°C° 0 mm 1 mps 751 mmHg 57%
    15:00 +28°C° 0 mm 1 mps 751 mmHg 56%
    16:00 +27°C° 0 mm 1 mps 751 mmHg 60%
    17:00 +26°C° 0 mm 1 mps 750 mmHg 64%
    18:00 +26°C° 0 mm 1 mps 750 mmHg 68%
    19:00 +24°C° 0 mm 1 mps 750 mmHg 72%
    20:00 +21°C° 0 mm 0 mps 750 mmHg 75%
    21:00 +19°C° 0 mm 0 mps 751 mmHg 78%
    22:00 +19°C° 0 mm 0 mps 751 mmHg 80%
    23:00 +19°C° 0 mm 0 mps 751 mmHg 81%

    Day after tomorrow, 23 August, Friday

    Time Temperature Precipitation Wind Pressure Humidity
    00:00 +20°C° 0 mm 1 mps 751 mmHg 82%
    01:00 +20°C° 0 mm 1 mps 751 mmHg 84%
    02:00 +20°C° 0 mm 1 mps 751 mmHg 85%
    03:00 +20°C° 0 mm 1 mps 751 mmHg 86%
    04:00 +18°C° 0 mm 2 mps 751 mmHg 88%
    05:00 +18°C° 0 mm 3 mps 752 mmHg 91%
    06:00 +18°C° 0 mm 4 mps 752 mmHg 93%
    07:00 +18°C° 0 mm 4 mps 752 mmHg 91%
    08:00 +18°C° 0 mm 4 mps 752 mmHg 89%
    09:00 +18°C° 0 mm 4 mps 753 mmHg 87%
    10:00 +19°C° 0 mm 4 mps 753 mmHg 81%
    11:00 +20°C° 0 mm 4 mps 753 mmHg 76%
    12:00 +21°C° 0 mm 4 mps 753 mmHg 70%
    13:00 +22°C° 0 mm 4 mps 753 mmHg 67%
    14:00 +22°C° 0 mm 4 mps 753 mmHg 65%
    15:00 +22°C° 0 mm 4 mps 753 mmHg 62%
    16:00 +21°C° 0 mm 4 mps 753 mmHg 65%
    17:00 +21°C° 0 mm 3 mps 753 mmHg 69%
    18:00 +20°C° 0 mm 3 mps 753 mmHg 72%
    19:00 +19°C° 0 mm 3 mps 753 mmHg 74%
    20:00 +18°C° 0 mm 2 mps 753 mmHg 75%
    21:00 +16°C° 0 mm 2 mps 753 mmHg 77%
    22:00 +16°C° 0 mm 2 mps 753 mmHg 78%
    23:00 +15°C° 0 mm 2 mps 754 mmHg 79%

    24 August, Saturday

    Time Temperature Precipitation Wind Pressure Humidity
    00:00 +15°C° 0 mm 2 mps 754 mmHg 80%
    01:00 +15°C° 0 mm 2 mps 754 mmHg 81%
    02:00 +14°C° 0 mm 2 mps 754 mmHg 83%
    03:00 +14°C° 0 mm 2 mps 754 mmHg 84%
    04:00 +14°C° 0 mm 2 mps 754 mmHg 85%
    05:00 +14°C° 0 mm 1 mps 754 mmHg 85%
    06:00 +14°C° 0 mm 1 mps 754 mmHg 86%
    07:00 +16°C° 0 mm 2 mps 754 mmHg 80%
    08:00 +17°C° 0 mm 2 mps 754 mmHg 74%
    09:00 +19°C° 0 mm 3 mps 755 mmHg 68%
    10:00 +20°C° 0 mm 2 mps 754 mmHg 64%
    11:00 +21°C° 0 mm 2 mps 754 mmHg 60%
    12:00 +23°C° 0 mm 2 mps 754 mmHg 55%
    13:00 +23°C° 0 mm 2 mps 754 mmHg 54%
    14:00 +24°C° 0 mm 2 mps 754 mmHg 54%
    15:00 +24°C° 0 mm 3 mps 754 mmHg 53%
    16:00 +23°C° 0 mm 2 mps 754 mmHg 57%
    17:00 +21°C° 0 mm 2 mps 753 mmHg 62%
    18:00 +21°C° 0 mm 1 mps 753 mmHg 66%
    19:00 +20°C° 0 mm 1 mps 753 mmHg 70%
    20:00 +18°C° 0 mm 1 mps 753 mmHg 73%
    21:00 +15°C° 0 mm 0 mps 753 mmHg 76%
    22:00 +15°C° 0 mm 0 mps 753 mmHg 77%
    23:00 +15°C° 0 mm 1 mps 753 mmHg 78%

    25 August, Sunday

    Time Temperature Precipitation Wind Pressure Humidity
    00:00 +15°C° 0 mm 1 mps 753 mmHg 79%
    01:00 +15°C° 0 mm 1 mps 753 mmHg 81%
    02:00 +14°C° 0 mm 1 mps 752 mmHg 82%
    03:00 +14°C° 0 mm 2 mps 752 mmHg 84%
    04:00 +14°C° 0 mm 2 mps 752 mmHg 84%
    05:00 +14°C° 0 mm 2 mps 752 mmHg 84%
    06:00 +14°C° 0 mm 2 mps 752 mmHg 84%
    07:00 +16°C° 0 mm 2 mps 752 mmHg 79%
    08:00 +18°C° 0 mm 3 mps 751 mmHg 73%
    09:00 +20°C° 0 mm 3 mps 751 mmHg 67%
    10:00 +21°C° 0 mm 4 mps 751 mmHg 64%
    11:00 +22°C° 0 mm 4 mps 751 mmHg 62%
    12:00 +23°C° 0 mm 4 mps 750 mmHg 59%
    13:00 +23°C° 0 mm 4 mps 750 mmHg 58%
    14:00 +23°C° 0 mm 5 mps 750 mmHg 58%
    15:00 +23°C° 0 mm 5 mps 749 mmHg 58%
    16:00 +22°C° 0.1 mm 5 mps 749 mmHg 63%
    17:00 +21°C° 0.1 mm 4 mps 749 mmHg 68%
    18:00 +20°C° 0.1 mm 4 mps 749 mmHg 74%
    19:00 +19°C° 0.4 mm 4 mps 749 mmHg 80%
    20:00 +17°C° 0.4 mm 3 mps 749 mmHg 87%
    21:00 +16°C° 0.4 mm 2 mps 749 mmHg 93%
    22:00 +16°C° 0.2 mm 3 mps 750 mmHg 93%
    23:00 +14°C° 0.2 mm 3 mps 750 mmHg 92%

    26 August, Monday

    Time Temperature Precipitation Wind Pressure Humidity
    00:00 +13°C° 0.2 mm 3 mps 750 mmHg 92%
    01:00 +13°C° 0 mm 3 mps 751 mmHg 93%
    02:00 +12°C° 0 mm 3 mps 751 mmHg 94%
    03:00 +11°C° 0 mm 3 mps 751 mmHg 95%
    04:00 +11°C° 0 mm 3 mps 752 mmHg 95%
    05:00 +11°C° 0 mm 4 mps 752 mmHg 96%
    06:00 +11°C° 0 mm 4 mps 752 mmHg 96%
    07:00 +11°C° 0 mm 4 mps 753 mmHg 92%
    08:00 +12°C° 0 mm 4 mps 753 mmHg 88%
    09:00 +12°C° 0 mm 4 mps 754 mmHg 85%
    10:00 +13°C° 0 mm 5 mps 754 mmHg 81%
    11:00 +13°C° 0 mm 5 mps 754 mmHg 78%
    12:00 +13°C° 0 mm 5 mps 755 mmHg 74%
    13:00 +14°C° 0 mm 4 mps 755 mmHg 71%
    14:00 +15°C° 0 mm 4 mps 755 mmHg 67%
    15:00 +17°C° 0 mm 4 mps 755 mmHg 64%
    16:00 +16°C° 0 mm 3 mps 755 mmHg 68%
    17:00 +16°C° 0 mm 3 mps 755 mmHg 71%
    18:00 +15°C° 0 mm 2 mps 755 mmHg 75%
    19:00 +14°C° 0 mm 2 mps 755 mmHg 78%
    20:00 +13°C° 0 mm 2 mps 756 mmHg 82%
    21:00 +11°C° 0 mm 1 mps 756 mmHg 85%
    22:00 +11°C° 0 mm 1 mps 756 mmHg 86%
    23:00 +10°C° 0 mm 1 mps 756 mmHg 86%
    Show more